Location: Clanezzo
(45.7500°N, 9.6000°E)
Time: 04:12:30
(UTC+00:00)

Cosmos 2369 Rocket - Pass Details

Date: 12 May 2021
Orbit: 827 x 854 km, 71.0° (Epoch: 18 June)

Event Time Altitude Azimuth Distance (km) Brightness Sun altitude
Exits shadow 23:43:36 24° 264° (W) 1,682 3.6 -25.6°
Maximum altitude 23:46:01 33° 307° (NW) 1,374 3.5 -25.5°
Drops below altitude 10° 23:51:06 10° 11° (NNE) 2,468 5.7 -25.4°
Sets 23:53:49 0° 21° (NNE) 3,412 6.6 -25.3°
